DMSP 5D-2 F11 DEB

Satellite information

Favourite Embed

Satellite Type and Status

DEBRISIN ORBIT

Key statistics

Satellite DMSP 5D-2 F11 DEB at a glance.

Uptime

12375

Days in orbit

Revolutions

≈ 14.7

Per day

Orbit

SSO

Sun Synchronous Orbit

Inclination

98.6

Latest

Satellite identification and parameters

Extended collection of information and parameters for DMSP 5D-2 F11 DEB.

Object identification

Identified? True

Debris? True

Object name: DMSP 5D-2 F11 DEB

International designator: 1991-082AN

Object number (NORAD): 28325

Object ID (CCSDS): 28325

Country: UNITED STATES OF AMERICA (US)

Current information (Y/N): Y

RCS size: SMALL

Orbital parameters

Period: 98.172 minutes

Inclination: 98.5689 deg

SMA: 7049.402 km

Apoapsis: 694.508 km

Periapsis: 648.025 km

RAAN: 157.0439 deg

Eccentricy: 0.00329694

Argument of periapsis: 182.2669 deg

Mean anomaly: 207.0752 deg

Mean motion: 14.66811678 rev/day

Mean motion (dot): 0.00035042 rev/day2

B* drag term: 0.0062086061 1/REarth

Two-line elements (TLE)

Creation date: Oct. 13, 2025, 6:48 p.m.

Reference frame: TEME

Reference center: EARTH

Epoch: Oct. 13, 2025, 1:59 p.m. UTC

TLE line 0: 0 DMSP 5D-2 F11 DEB

TLE line 1: 1 28325U 91082AN 25286.58268196 .00035042 00000-0 62086-2 0 9996

TLE line 2: 2 28325 98.5689 157.0439 0032969 182.2669 207.0752 14.66811678106478

Live tracking on map

Real-time ground track for satellite DMSP 5D-2 F11 DEB.

In-orbit conjunctions

A list of the most updated potential collisions computed for object DMSP 5D-2 F11 DEB.

Target Orbit TCA Probability of collision Miss distance Type
CZ-4B R/B SSO 2025-07-06 11:33:10 0.0004947353 118.0 (m) ROCKET BODY
FENGYUN 1C DEB SSO 2024-11-10 06:31:28 0.0001366822 346.0 (m) DEBRIS

Associated space launch

Military meteorological satellite

DMSP 5D-2 F11 DEB was lifted into orbit during the mission ‘Atlas E | DMSP-5D2 F11’, on board a Atlas E space rocket.

The launch took place on Nov. 28, 1991, 1:23 p.m. from Space Launch Complex 3W.

For more information about the launch, click the button.

Launch to space Atlas E | DMSP-5D2 F11
Atlas E | DMSP-5D2 F11

Agency: N/A

Status: Launch Successful

Launch date: Nov. 28, 1991, 1:23 p.m. UTC

Rocket: Atlas E

Launch pad: Space Launch Complex 3W

Location: Vandenberg SFB, CA, USA

...

Latest news about this satellite

There are no fresh news available about this satellite. Check back as we update our databases every day.


Newsletter sign-up

Weekly statistics, charts and insights to help you stay on top of the space industry.